This is the latest recevied weather packets stored in our database for station/object OK1KZE-6. If no packets are shown the sender has not sent any weather packets the latest 1 day(s).
| Time | Temp. | Humidity | Pressure | Rain* | Wind** | Luminosity | Snow |
|---|---|---|---|---|---|---|---|
| 1777947607 | 15.56° C | 71% | 1011.4 hPa | - | 5.36 m/s, 100° | - | - |
| 1777947307 | 15.56° C | 71% | 1011.5 hPa | - | 6.26 m/s, 97° | - | - |
| 1777947007 | 15.56° C | 71% | 1011.3 hPa | - | 5.36 m/s, 89° | - | - |
| 1777946708 | 15.56° C | 70% | 1011.4 hPa | - | 5.36 m/s, 82° | - | - |
| 1777946407 | 15.56° C | 71% | 1011.6 hPa | - | 5.36 m/s, 80° | - | - |
| 1777946107 | 15.56° C | 71% | 1011.4 hPa | - | 4.92 m/s, 78° | - | - |
| 1777945808 | 15.56° C | 72% | 1011.6 hPa | - | 4.92 m/s, 83° | - | - |
| 1777945508 | 15° C | 72% | 1011.7 hPa | - | 4.02 m/s, 81° | - | - |
| 1777945207 | 15° C | 73% | 1011.6 hPa | - | 3.58 m/s, 86° | - | - |
| 1777944907 | 15° C | 73% | 1011.7 hPa | - | 3.58 m/s, 76° | - | - |
| 1777944607 | 15.56° C | 73% | 1011.6 hPa | - | 4.47 m/s, 71° | - | - |
| 1777944308 | 15° C | 73% | 1011.6 hPa | - | 4.47 m/s, 85° | - | - |
| 1777944006 | 15.56° C | 73% | 1011.7 hPa | - | 3.58 m/s, 75° | - | - |
| 1777943708 | 15.56° C | 73% | 1012 hPa | - | 4.92 m/s, 72° | - | - |
| 1777943408 | 15.56° C | 72% | 1011.9 hPa | - | 5.36 m/s, 75° | - | - |
| 1777943108 | 15° C | 74% | 1012 hPa | - | 4.02 m/s, 76° | - | - |
| 1777942807 | 15.56° C | 72% | 1011.8 hPa | - | 3.58 m/s, 70° | - | - |
| 1777942508 | 15.56° C | 71% | 1011.9 hPa | - | 6.71 m/s, 68° | - | - |
| 1777942209 | 15.56° C | 72% | 1012.1 hPa | - | 6.26 m/s, 62° | - | - |
| 1777941908 | 15° C | 74% | 1012.1 hPa | - | 6.71 m/s, 48° | - | - |
| 1777941606 | 15.56° C | 73% | 1012.2 hPa | - | 6.71 m/s, 75° | - | - |
| 1777941308 | 15° C | 74% | 1012.1 hPa | - | 9.39 m/s, 66° | - | - |
| 1777941007 | 15° C | 75% | 1012.3 hPa | - | 7.15 m/s, 59° | - | - |
| 1777940707 | 15° C | 74% | 1012.1 hPa | - | 7.15 m/s, 79° | - | - |
| 1777940407 | 15° C | 75% | 1012.3 hPa | - | 7.6 m/s, 75° | - | - |
* Rain since midnight (hover to see other rain measurements)
** Current wind speed in m/s (hover to see current wind gust speed)